Theta_e
307 299 298 297 300 302 303 303 302 301 302 301 300 300 298 298 299 302 302 305 306 301 300 300 301 301 301 303 309 315 317 316 315 315 317 317 318 320 320 320 318 320 323 328 329 331 332 334 334 335 335 336 339 339 340 339 340 341 340 340 339 342 342 340 339 338 337 336 335 338 339 340 341 340 341 342 342 342 342 341 336 335 336 343 346 343
305 298 298 302 303 303 303 304 303 302 301 300 299 298 297 299 297 301 302 304 305 300 299 301 300 300 301 303 305 314 314 310 312 314 314 316 318 320 319 318 318 320 326 327 328 329 331 330 334 335 335 335 333 335 337 337 338 339 341 341 341 342 342 342 342 340 340 339 337 337 337 339 338 339 338 338 341 341 341 343 347 349 341 337 342 344
300 298 302 304 305 305 304 304 303 300 299 300 298 298 296 297 300 302 303 304 304 302 298 300 298 299 301 303 304 310 309 313 314 314 316 316 319 318 319 319 319 321 323 325 327 328 329 330 332 333 335 335 335 335 335 337 337 338 338 339 340 341 341 342 343 342 340 342 341 339 340 340 338 341 341 340 341 345 343 343 345 346 348 346 344 342
298 301 303 305 305 303 302 302 300 300 300 298 297 296 295 299 297 294 300 303 303 301 299 301 299 300 302 303 304 306 310 312 315 317 318 320 318 317 318 318 317 318 321 323 325 327 328 330 331 331 332 334 335 334 334 336 336 337 338 339 340 341 342 342 343 343 344 344 342 342 343 342 341 340 342 344 345 343 343 344 347 347 346 344 341 339
299 303 306 305 303 301 299 301 300 299 297 299 299 297 296 298 299 298 298 302 303 303 303 300 298 298 300 299 301 304 309 310 317 319 319 319 320 320 320 319 318 318 321 322 325 326 327 329 329 331 332 334 333 334 333 335 336 335 336 338 339 339 341 342 342 343 344 343 342 342 343 343 342 342 342 340 339 341 342 342 345 344 343 342 341 341
301 305 306 303 302 302 300 299 300 300 296 298 301 300 300 300 299 300 301 299 297 297 301 300 292 292 299 299 300 304 314 312 317 317 316 318 318 317 316 318 319 321 322 320 322 325 327 328 330 331 332 332 333 333 335 337 337 337 336 337 339 339 340 340 341 343 343 341 341 339 337 336 336 335 336 335 336 338 339 339 343 343 342 342 342 342
302 306 305 301 301 301 301 299 301 301 296 295 297 302 301 300 300 300 299 298 292 290 298 301 291 288 298 298 300 301 302 310 314 313 314 315 316 317 316 317 317 321 320 320 323 325 326 328 328 330 330 331 331 332 336 337 337 337 338 338 339 339 339 340 340 340 342 340 341 340 338 338 337 335 338 340 341 341 343 344 343 343 344 342 342 342
303 303 303 303 301 298 298 297 301 301 298 296 302 302 301 300 298 298 298 297 295 299 300 300 297 290 290 297 301 303 302 305 310 312 312 313 316 316 316 317 316 319 321 321 322 324 326 326 328 328 330 332 331 333 335 335 336 335 336 337 338 340 341 341 342 341 343 339 340 339 339 339 339 338 339 341 342 344 342 339 342 342 343 343 342 343
302 301 302 301 300 298 297 301 303 303 299 298 302 303 300 300 299 300 298 297 297 295 290 295 298 292 290 296 302 303 300 301 309 311 311 312 314 315 317 316 317 319 320 320 320 322 323 326 327 330 330 331 332 334 333 334 335 335 336 337 332 339 339 340 340 342 341 342 341 341 341 339 339 340 340 342 341 342 343 341 341 341 340 341 343 343
304 304 303 303 301 299 302 303 304 303 299 302 303 304 302 302 301 299 297 296 295 293 288 292 296 289 290 296 298 301 300 303 308 309 310 310 313 314 314 315 316 318 318 319 321 321 323 325 328 331 331 330 332 334 334 334 335 335 336 334 335 336 338 340 340 341 341 341 342 340 340 338 340 341 343 343 342 341 341 338 338 341 342 341 342 343
304 309 309 304 301 302 302 303 304 304 304 306 303 300 299 299 298 298 298 297 294 287 290 295 296 294 287 295 297 297 300 303 307 309 310 312 313 315 315 315 318 316 318 318 320 321 323 326 327 330 329 330 332 333 333 333 334 335 335 333 334 336 340 339 338 338 339 340 341 340 340 339 338 340 340 339 339 340 339 338 339 340 340 341 340 342
304 304 303 305 307 305 304 301 304 304 304 302 299 297 296 295 298 297 296 297 288 286 293 296 296 297 286 291 298 302 304 304 304 308 309 311 311 313 315 314 316 316 318 319 318 319 322 323 327 329 327 329 330 331 331 332 333 333 333 333 332 331 335 337 337 338 339 341 341 340 340 339 340 340 338 337 336 338 337 338 339 341 341 341 341 341
301 302 305 305 309 305 303 300 300 302 302 300 299 298 292 289 290 286 291 286 287 285 295 297 297 292 291 296 298 301 303 305 307 311 308 309 311 314 315 315 315 315 318 318 319 322 322 324 325 326 326 328 328 329 330 330 332 333 332 331 331 332 334 335 338 335 337 338 339 340 340 339 341 340 340 339 338 339 339 339 339 341 339 339 338 340
299 303 303 303 305 307 304 297 297 297 300 299 297 296 291 286 285 282 286 289 289 294 297 295 299 291 295 297 303 304 304 306 307 310 312 311 312 314 315 316 315 315 316 318 320 321 323 326 325 326 325 326 328 328 330 330 331 331 330 331 330 331 333 334 335 336 335 337 339 339 340 340 341 340 340 340 339 339 340 340 340 339 337 338 338 339
289 292 299 301 299 306 303 300 299 298 299 299 302 298 294 291 287 282 285 283 286 288 293 297 291 289 289 299 301 304 306 308 310 310 312 314 314 315 315 314 313 315 315 317 319 321 323 323 324 324 325 326 327 329 329 329 330 330 330 330 330 330 332 333 334 335 335 337 338 338 341 341 339 338 341 342 340 340 340 340 339 339 341 340 339 339
296 295 301 305 305 306 303 306 305 302 299 300 301 301 296 293 298 288 291 289 289 289 289 292 291 296 295 305 307 306 307 306 309 309 309 310 312 312 313 314 314 315 316 320 322 322 322 322 323 324 325 326 327 326 328 328 330 330 331 331 331 330 332 333 333 334 335 336 338 337 338 338 339 339 339 340 340 341 340 339 340 339 340 341 343 342
296 293 303 304 306 304 304 305 303 304 290 301 299 294 297 303 299 292 291 296 294 290 286 294 293 296 302 304 303 304 305 306 307 307 308 308 310 312 312 314 316 316 317 319 321 319 321 322 324 325 325 325 327 327 327 329 329 330 330 330 329 330 331 332 333 334 334 336 335 336 337 337 338 338 336 338 337 339 340 339 338 338 340 341 342 339
293 294 302 301 300 305 307 306 305 305 304 299 293 298 303 305 302 295 287 288 287 284 286 293 290 292 292 288 303 303 302 304 305 305 307 309 308 309 311 314 314 317 319 320 321 321 320 321 322 323 322 322 322 325 326 327 330 330 332 329 328 328 329 330 331 332 334 333 334 334 335 336 336 337 337 337 336 338 339 340 338 338 337 337 339 339
301 292 298 302 302 303 306 305 301 304 305 299 297 305 295 290 290 297 290 283 283 283 285 290 292 292 294 292 299 299 301 302 303 306 306 306 307 308 311 312 314 315 321 320 320 320 320 320 321 320 321 323 323 325 324 326 327 328 331 330 330 328 330 331 331 331 332 333 332 332 334 334 335 336 337 337 336 337 335 334 336 336 337 338 338 338
303 292 294 302 300 303 304 302 293 298 303 303 303 298 301 297 294 289 289 292 291 284 284 286 290 286 296 298 299 299 302 302 303 304 305 306 308 310 310 311 313 314 319 318 320 320 320 320 320 319 319 320 320 322 326 327 326 327 329 327 328 330 329 327 328 332 332 333 332 331 334 334 330 331 332 336 336 336 335 336 335 333 335 337 338 338
298 304 289 299 304 302 295 300 296 298 297 298 298 296 298 298 300 297 298 293 290 286 285 284 283 289 297 302 301 301 303 304 304 304 306 307 308 309 310 311 315 316 318 320 320 319 319 320 320 321 320 321 322 324 324 325 326 326 326 326 324 326 326 327 328 327 328 331 331 331 330 332 333 333 333 334 335 334 336 336 336 336 336 335 335 336
295 298 291 296 296 296 297 303 302 301 301 299 299 297 298 295 292 289 287 297 294 290 285 285 283 292 300 305 304 303 305 304 305 305 306 306 307 310 312 315 317 318 320 318 319 319 317 318 320 321 321 323 322 323 323 323 326 325 327 325 325 321 320 322 324 324 326 329 328 326 329 330 332 332 332 332 333 333 333 335 335 336 337 335 336 336
304 302 297 292 295 296 301 304 305 304 304 302 301 299 301 299 297 292 285 290 294 294 295 292 287 289 303 305 305 306 305 305 306 306 306 307 308 310 312 313 316 318 322 321 323 321 320 319 320 319 319 319 321 321 322 323 323 323 327 327 326 323 323 324 327 325 327 328 329 327 328 330 330 331 331 330 331 331 331 332 333 334 333 333 333 334
308 298 294 295 299 301 303 305 304 304 303 300 301 301 299 295 297 295 294 296 292 293 291 289 286 291 303 306 306 306 306 306 306 306 305 307 308 309 310 313 313 316 322 322 322 322 321 321 321 320 320 320 321 321 320 322 321 324 326 323 322 323 324 324 323 321 322 323 326 328 327 328 330 329 330 329 330 329 330 331 333 332 332 331 333 331
295 299 296 291 291 293 297 299 300 304 302 299 297 300 300 299 298 298 297 298 290 292 292 288 283 288 301 307 305 305 304 304 305 306 307 306 309 310 310 311 312 315 318 319 320 320 320 320 319 320 320 319 319 319 320 320 320 321 321 321 321 321 322 321 323 322 320 324 323 328 330 327 327 328 328 328 330 329 329 330 330 331 328 330 329 328
298 298 295 288 285 283 283 285 288 291 296 300 301 300 300 298 298 296 290 292 287 292 294 289 288 296 303 305 303 304 304 304 306 306 307 307 309 309 312 312 309 313 316 318 317 318 319 318 319 319 318 319 319 317 318 319 320 321 322 323 325 322 323 323 329 322 325 326 324 326 327 328 328 327 328 327 328 328 328 329 328 328 330 327 326 326
298 302 299 296 292 290 292 296 299 300 298 293 299 300 300 301 300 299 297 292 289 293 292 294 294 296 299 301 301 301 304 303 304 305 305 306 308 311 313 312 312 314 318 315 316 318 319 318 318 319 319 319 318 318 318 318 318 319 320 322 320 320 322 326 328 328 328 321 325 325 326 326 326 326 326 327 327 328 327 327 328 326 325 326 324 324
301 296 298 298 298 297 299 299 301 301 297 298 298 298 300 300 300 298 293 291 298 293 288 295 297 295 296 300 303 303 303 304 305 305 306 307 307 309 310 312 312 312 315 315 316 316 316 318 319 319 319 319 317 317 318 318 318 318 318 318 319 319 321 324 324 323 321 323 325 325 324 327 326 325 326 326 326 326 327 326 326 325 326 325 324 323
299 293 298 298 297 299 300 300 301 300 300 299 299 299 298 300 299 297 296 298 298 291 289 296 298 296 298 301 304 304 305 305 304 306 307 308 308 309 310 310 310 310 312 313 314 315 316 317 318 318 318 318 318 317 317 316 318 318 318 317 318 320 320 322 322 321 321 323 323 322 325 324 322 324 325 324 324 326 324 324 327 325 325 324 325 324
301 295 298 299 297 298 299 300 300 299 298 299 299 299 299 299 299 299 299 299 298 297 298 298 298 298 300 301 303 305 308 307 306 308 309 307 308 308 309 309 308 309 309 310 312 314 315 316 317 317 318 318 316 315 315 316 316 316 316 318 318 320 321 321 321 319 319 318 320 324 319 323 324 323 324 323 323 325 327 322 324 325 324 322 323 323
300 293 299 299 296 296 298 299 300 299 298 296 298 299 299 299 299 300 300 300 300 298 299 299 298 297 303 306 305 308 309 307 306 305 306 307 307 307 308 309 310 310 310 312 311 313 315 316 316 316 316 317 317 316 316 316 316 317 317 318 318 318 320 318 320 319 320 317 318 319 319 320 320 322 319 322 322 320 320 321 323 322 323 323 324 323
302 295 301 298 291 292 297 297 298 299 299 297 296 297 297 297 296 298 296 300 298 296 298 298 296 296 302 306 307 307 307 306 306 307 308 308 308 308 307 307 307 308 309 310 312 313 314 314 316 316 315 316 317 317 315 316 316 316 315 317 316 317 318 320 319 318 318 317 318 317 316 320 318 317 319 319 317 318 318 318 317 316 317 319 323 321
300 298 294 294 290 290 296 298 297 297 296 291 292 297 299 299 300 300 301 302 302 302 296 293 295 301 303 306 304 305 305 305 305 305 306 307 308 308 307 308 308 309 309 310 311 312 314 313 314 317 317 316 316 315 316 317 316 315 315 318 318 320 320 317 317 316 316 315 315 315 323 317 316 316 318 318 318 322 317 320 316 317 316 317 321 322
301 299 296 299 289 290 296 297 297 292 285 287 300 304 302 299 300 298 298 300 303 303 300 302 302 304 305 305 304 304 304 305 308 310 310 310 309 310 309 309 309 310 313 313 314 314 315 315 316 317 318 318 317 316 318 319 316 318 325 318 317 319 317 314 314 315 314 314 314 315 317 316 315 315 316 317 319 322 318 316 316 316 317 320 317 319
299 299 296 299 292 290 295 295 289 284 286 299 304 305 304 304 303 300 301 302 303 304 304 303 304 305 306 306 306 308 308 308 310 309 309 310 312 311 310 309 309 311 313 316 317 315 320 325 324 320 319 317 317 320 320 318 317 321 316 319 316 315 316 315 314 315 315 314 314 318 319 314 314 314 316 318 316 319 316 316 316 317 317 317 316 318
297 295 295 294 294 293 291 290 282 285 297 302 303 305 307 305 303 302 300 302 304 304 306 304 305 306 306 307 308 309 308 309 311 311 314 314 313 312 311 313 313 315 314 316 319 321 322 318 324 321 321 320 319 319 318 319 320 317 315 315 315 315 315 316 313 312 315 314 314 313 316 315 315 318 315 315 317 315 313 315 316 315 315 316 317 317
302 299 295 291 296 287 289 289 289 297 296 298 299 301 301 299 300 298 291 297 303 304 304 303 304 305 305 306 307 308 309 309 306 307 311 309 311 313 315 315 314 318 317 319 319 321 323 324 324 326 323 321 318 317 319 319 318 317 315 314 314 314 315 314 313 311 315 314 314 314 314 314 314 317 315 316 315 311 314 313 313 315 316 313 315 316
303 298 297 292 291 294 289 287 288 288 285 291 300 305 307 308 306 307 301 297 306 306 306 304 303 304 306 306 307 308 310 304 301 302 309 311 312 313 313 314 315 318 317 317 319 321 321 320 321 323 320 320 319 319 319 318 318 315 315 314 313 312 313 312 312 312 312 312 313 313 313 314 312 313 313 313 311 313 312 314 316 313 313 314 315 316
304 303 301 294 291 292 289 286 286 285 288 298 301 303 305 307 307 307 299 293 302 305 306 306 304 304 304 305 306 308 304 299 299 304 309 312 312 313 312 313 313 316 318 315 315 314 315 323 321 318 319 319 316 317 319 318 317 314 313 314 313 313 312 312 311 312 311 313 313 312 313 314 314 313 312 311 316 315 312 313 314 313 314 317 315 317
299 300 295 291 289 290 289 287 286 289 289 298 303 304 305 307 307 302 287 288 302 305 306 306 305 306 307 307 308 306 303 298 301 305 311 313 314 315 315 314 315 313 313 314 314 317 317 317 317 317 318 316 318 319 318 318 316 316 314 312 313 313 312 312 313 311 313 316 318 319 320 314 313 314 315 313 316 316 312 312 313 314 313 313 312 312
294 293 292 290 290 290 288 289 291 291 298 304 304 306 305 310 304 289 285 292 305 307 307 308 306 307 308 308 307 302 306 308 309 312 315 313 311 312 314 317 313 313 312 314 313 313 313 314 315 314 315 316 318 317 316 316 316 315 314 315 313 313 314 314 314 314 314 315 314 313 313 314 313 315 316 315 316 316 311 312 313 315 313 312 312 314
296 295 292 292 290 289 290 288 289 293 301 305 306 306 307 302 290 288 299 310 307 307 308 308 308 309 309 308 308 307 309 310 311 312 311 311 311 312 312 313 314 313 313 313 315 314 320 313 316 317 315 316 317 317 317 316 314 314 314 314 315 316 315 314 313 316 315 313 311 313 313 314 313 314 314 316 316 315 313 311 311 312 313 313 313 313
293 288 289 289 292 292 290 288 287 284 295 307 307 304 307 294 296 304 307 307 308 307 309 308 309 309 310 308 309 309 309 309 311 311 311 311 311 310 312 312 314 312 313 315 315 313 313 314 314 313 316 315 316 315 315 315 314 314 317 315 316 316 315 314 317 313 313 312 311 315 313 314 313 312 311 312 316 315 314 312 310 310 312 313 313 312
301 290 290 291 298 288 288 286 287 296 303 308 306 296 303 304 307 309 306 304 311 309 309 309 310 311 311 309 310 310 311 310 311 313 312 311 312 313 312 314 314 312 312 312 313 314 314 316 318 315 316 315 315 315 315 316 314 314 314 315 317 317 317 317 315 313 312 315 313 314 313 312 312 311 311 312 313 313 313 313 312 311 313 315 313 311
301 295 298 290 301 292 290 294 303 304 305 307 309 308 311 310 311 310 311 308 308 308 311 310 311 311 313 312 310 310 309 312 310 311 311 311 311 311 312 312 315 315 316 316 316 318 316 314 316 317 316 316 318 316 315 315 314 313 313 315 316 314 314 314 313 314 313 313 312 313 313 312 312 311 311 310 310 309 310 310 312 310 311 312 311 310
304 303 305 301 298 305 305 303 306 307 308 307 309 311 310 311 311 312 310 308 310 310 312 313 312 312 314 315 310 310 310 311 312 313 313 313 312 312 313 313 314 316 315 314 315 316 313 313 314 315 314 313 314 316 316 315 315 314 314 315 315 314 314 314 313 313 312 311 312 310 309 310 311 309 310 311 309 310 311 311 310 309 311 310 310 309
302 304 301 296 301 296 290 305 304 304 305 306 307 309 311 312 311 311 313 311 311 312 312 313 312 314 312 312 313 312 312 313 312 313 313 312 314 314 314 313 316 316 315 314 317 318 316 314 312 312 313 314 315 315 315 317 315 315 316 315 315 314 314 313 312 312 312 314 311 312 311 312 312 310 310 310 309 309 310 311 311 310 310 309 309 308
296 304 298 298 298 294 294 303 305 306 307 307 308 306 306 307 310 312 314 314 313 314 313 314 315 313 313 312 312 312 313 314 312 312 312 312 313 314 314 314 316 316 317 318 319 319 317 316 312 312 313 313 317 316 316 315 315 314 316 315 315 314 314 313 311 310 309 310 312 313 310 309 305 308 308 308 309 308 308 308 309 309 309 308 308 307
300 302 292 298 296 299 303 304 304 305 304 306 308 309 313 313 311 311 313 313 313 313 311 313 315 313 312 312 313 313 311 312 313 313 312 313 314 315 315 315 316 317 318 317 318 318 315 315 313 314 314 315 316 316 316 317 315 315 318 315 314 314 313 312 310 311 312 311 310 310 309 309 309 307 308 309 308 311 309 308 309 309 310 313 312 310
300 295 299 297 292 292 294 299 303 294 292 302 306 309 309 311 313 310 310 313 311 311 311 312 313 313 313 314 313 313 311 312 314 314 313 313 314 316 318 316 317 317 317 319 318 317 317 317 318 317 315 315 316 315 314 316 316 316 317 314 314 315 313 312 310 310 309 309 309 309 308 309 309 308 307 307 308 307 305 295 295 308 311 307 297 294
297 299 299 292 292 292 299 301 305 303 301 301 304 309 311 311 311 310 310 309 310 312 312 312 311 312 314 313 315 316 313 312 313 315 315 314 315 317 317 318 316 317 316 318 317 317 316 317 317 316 315 316 316 315 315 315 315 315 315 314 314 312 310 310 309 308 308 308 307 306 308 308 308 308 307 307 308 310 305 304 301 292 294 297 295 293
Wind_Speed
5 6 6 7 4 4 10 13 3 7 8 11 9 10 4 7 8 7 12 8 8 4 9 8 9 12 14 10 18 20 18 16 15 14 11 11 9 7 6 5 7 7 7 4 5 5 5 5 6 6 7 8 8 6 7 8 8 9 9 8 8 6 6 6 6 4 5 5 4 2 3 3 3 3 2 1 1 1 3 4 4 4 4 3 5 4
6 6 8 8 2 6 7 13 8 7 7 9 10 9 7 8 7 8 7 6 11 6 7 9 13 14 12 12 10 20 19 19 19 16 14 14 11 9 8 8 8 7 6 5 3 4 3 5 5 5 6 8 9 7 6 7 7 7 7 8 8 6 6 5 4 5 4 4 4 4 3 3 3 3 2 1 1 1 3 3 1 1 3 4 4 6
5 5 9 8 12 10 10 8 7 8 11 10 8 8 9 11 10 8 9 13 10 7 6 11 13 13 14 15 14 14 18 16 17 18 17 15 14 10 9 6 3 7 6 5 4 5 5 5 6 5 5 6 6 7 8 7 7 6 6 6 6 6 6 6 5 5 5 4 5 4 3 4 3 2 3 2 2 1 1 1 2 1 1 2 2 3
7 6 3 13 6 8 9 5 8 8 8 7 9 8 10 8 7 6 8 10 11 8 9 13 16 8 12 15 14 12 18 18 18 17 15 16 13 11 9 7 2 3 7 6 7 7 6 6 5 5 5 6 6 6 6 5 6 5 5 5 6 4 4 5 6 5 5 6 6 4 3 3 2 3 4 4 3 3 2 2 2 1 1 2 3 4
4 2 5 1 5 8 9 8 4 6 6 8 10 8 10 9 9 9 9 8 10 11 13 14 12 12 12 13 11 11 7 18 15 16 15 11 13 12 9 11 6 5 3 3 6 7 8 7 7 6 6 6 7 6 6 5 4 5 5 5 5 4 4 4 5 3 3 6 6 5 4 3 3 3 3 2 3 4 5 3 3 3 3 4 4 3
5 12 5 6 7 6 5 8 8 5 9 8 9 9 9 8 11 9 11 12 9 8 7 10 10 11 9 16 15 8 16 16 15 15 10 10 7 8 5 7 11 6 6 1 8 8 7 7 7 7 7 6 6 6 5 4 5 5 5 4 5 4 4 3 3 4 4 4 4 5 5 4 4 4 4 5 5 5 5 6 5 5 5 5 4 4
6 8 2 8 6 8 9 6 8 7 8 8 6 6 8 11 14 14 12 7 9 9 6 7 10 9 9 12 10 10 5 18 12 9 10 5 3 4 7 5 5 10 10 10 16 9 8 6 8 7 7 7 7 6 4 3 4 5 4 4 3 4 4 3 3 3 2 2 3 3 3 3 4 4 4 4 4 4 3 3 5 5 5 6 5 5
7 5 5 6 8 7 6 6 7 9 5 9 8 5 7 13 17 15 11 10 10 11 12 13 10 10 10 9 9 12 16 12 15 13 12 6 4 7 5 7 4 5 7 12 10 8 7 8 7 8 8 6 7 7 6 5 5 5 5 4 3 2 2 3 3 3 3 2 2 3 3 3 2 2 2 2 3 3 4 3 3 4 3 4 5 4
5 10 7 7 6 5 7 7 9 6 6 8 12 14 17 12 6 11 10 10 9 9 10 10 12 12 11 10 12 12 12 13 16 18 16 17 17 15 11 9 5 5 9 11 10 8 7 7 8 7 7 8 7 6 6 5 5 5 3 4 1 3 2 3 2 1 1 1 1 1 1 2 2 2 2 2 3 4 3 4 5 5 4 4 5 5
2 6 9 8 6 7 4 11 9 11 12 3 1 10 12 11 9 10 10 11 10 9 10 12 9 10 11 9 8 7 12 3 7 7 7 4 8 13 14 15 15 10 15 13 10 10 8 7 6 6 7 8 7 5 6 5 5 4 4 3 4 4 2 3 3 2 2 2 2 2 2 3 2 1 1 1 1 4 4 3 4 5 5 5 6 5
4 7 2 4 7 8 11 10 10 11 12 10 9 11 11 12 10 10 10 9 8 7 11 12 14 11 10 7 5 7 4 2 9 8 9 9 7 7 7 12 13 15 14 12 10 9 9 6 6 6 7 6 6 5 5 4 4 4 4 4 3 4 1 2 1 2 2 2 2 2 3 3 3 3 2 2 2 2 4 6 5 5 5 5 5 5
15 9 9 3 5 5 7 10 10 11 10 8 8 8 9 9 10 9 7 7 6 8 9 11 10 11 13 4 8 10 10 6 5 10 9 11 12 10 8 11 13 12 11 10 10 10 10 8 7 6 6 6 5 5 6 4 4 4 4 3 3 5 2 2 1 2 1 2 2 3 3 3 2 2 2 3 4 3 4 4 4 4 3 4 5 5
9 7 7 6 11 1 4 7 9 10 9 8 8 8 7 6 3 5 5 6 6 8 6 10 6 6 9 7 11 10 7 7 6 8 8 9 11 11 11 14 13 13 12 12 10 9 9 9 7 7 6 6 5 6 6 6 5 5 4 6 4 5 5 3 2 2 2 2 2 2 2 2 2 2 3 3 3 3 3 3 3 2 2 2 4 5
7 11 14 11 7 9 3 6 4 7 3 6 7 6 6 6 5 7 7 6 7 9 5 10 12 10 8 5 7 13 8 12 5 7 10 13 11 12 13 12 12 10 11 10 8 9 7 5 6 7 7 7 5 6 5 6 5 4 4 4 4 3 5 3 2 2 2 2 2 2 2 2 1 2 2 2 3 3 3 3 3 3 5 5 4 4
7 4 5 7 3 8 4 4 6 7 6 7 6 6 6 5 6 6 4 7 7 6 7 7 9 4 6 2 4 5 11 4 9 9 7 11 14 11 12 13 12 11 12 11 9 10 9 9 7 6 5 6 6 7 7 5 4 4 5 5 5 3 2 3 3 2 2 2 2 2 2 1 1 2 2 2 2 3 3 3 3 3 3 3 4 4
8 7 5 3 1 5 6 8 6 6 8 9 8 7 8 7 3 8 4 8 9 9 8 6 6 3 5 3 5 1 4 2 4 7 2 6 9 11 9 9 9 10 10 9 8 7 7 6 6 6 5 4 6 8 6 6 5 4 4 3 3 4 3 4 3 2 2 2 2 2 1 1 1 2 2 2 2 2 3 3 3 4 3 2 2 2
6 5 8 9 0 7 8 7 8 4 6 3 3 5 6 4 5 5 5 9 8 5 9 5 8 9 6 10 5 1 6 6 3 5 6 4 6 5 6 6 12 12 12 11 9 8 7 5 5 3 3 2 3 5 6 6 5 5 4 3 3 4 3 2 2 3 2 2 1 1 2 1 2 2 2 1 2 2 1 2 4 4 4 3 2 3
6 6 8 6 6 11 8 2 7 8 7 8 7 2 5 6 7 6 5 3 5 7 6 6 10 7 6 3 2 8 8 9 7 8 8 7 7 9 9 7 8 11 11 11 10 10 11 9 7 4 4 5 7 9 9 8 6 4 4 4 5 4 3 3 4 3 2 2 2 2 2 2 2 1 2 2 2 2 1 2 2 3 3 3 4 4
5 6 7 11 10 2 8 2 8 11 11 10 9 4 5 1 3 4 1 5 6 7 6 7 10 6 2 1 6 3 3 2 7 7 7 9 10 9 8 9 10 9 9 10 11 10 9 8 8 8 8 4 6 11 13 9 9 6 3 4 3 2 3 3 1 2 1 2 1 1 1 2 2 2 2 2 2 2 3 3 3 4 3 3 4 4
3 5 7 5 3 4 4 3 5 6 11 13 8 10 7 7 6 6 3 5 4 7 6 9 6 3 3 3 5 2 4 3 5 6 5 8 8 3 1 6 11 11 9 9 8 9 10 8 8 9 8 9 11 15 11 9 6 4 3 1 4 3 1 1 1 2 2 1 1 2 1 2 3 3 3 2 2 2 2 1 2 5 6 4 3 3
7 6 5 5 5 2 5 5 7 6 5 6 7 7 6 6 4 7 5 7 6 5 7 7 7 1 4 4 2 4 3 4 5 7 6 5 6 7 6 8 7 8 8 8 8 8 9 7 6 6 7 9 14 12 12 7 6 5 8 8 4 2 5 3 4 4 3 2 2 2 1 2 2 3 2 2 2 3 2 2 1 1 2 3 3 3
4 7 5 7 8 7 8 8 8 8 6 6 5 6 6 7 6 4 6 6 7 6 4 6 7 3 6 4 5 7 6 8 7 7 8 9 8 7 7 5 3 2 8 11 10 9 8 8 7 6 7 10 11 10 11 9 5 5 4 4 4 6 4 6 6 6 6 3 2 1 1 2 2 2 2 3 2 3 3 2 2 2 1 2 2 2
6 6 8 7 9 11 9 13 8 7 8 8 6 8 7 7 5 4 6 6 6 7 9 6 4 5 4 6 4 1 2 4 5 6 6 7 6 5 6 5 2 3 9 6 6 11 12 14 14 14 14 15 13 10 7 5 6 5 3 3 3 5 5 3 1 1 3 2 2 1 0 1 2 2 2 3 3 3 3 3 3 2 2 2 3 3
8 3 8 11 10 13 18 7 2 8 10 10 10 11 9 8 7 9 8 6 5 6 5 5 5 2 5 3 3 3 4 5 6 7 7 5 5 7 7 4 5 2 10 7 6 4 5 6 9 12 16 14 10 6 7 7 7 5 4 5 5 4 3 3 3 4 5 4 4 4 1 1 2 2 2 3 3 3 3 3 2 2 2 3 3 4
4 4 8 8 8 6 9 9 9 6 6 7 8 8 10 11 13 12 11 8 7 9 11 8 9 3 6 3 4 4 6 6 7 4 2 3 4 4 6 11 8 5 5 10 6 5 5 6 7 8 7 7 8 9 6 7 7 7 9 7 6 5 5 5 3 1 3 1 0 0 0 1 1 1 3 3 2 3 3 3 3 2 4 3 4 4
3 4 5 6 7 7 7 6 6 4 8 8 9 11 12 13 12 9 6 6 8 8 12 8 6 5 6 5 6 4 3 3 4 5 6 8 7 2 3 6 14 13 4 10 8 7 8 7 7 5 3 6 7 9 10 9 8 5 3 4 3 3 4 4 1 3 1 2 3 2 1 2 2 2 2 3 3 3 3 2 3 3 2 4 4 3
3 5 7 9 10 9 10 6 5 6 6 7 8 9 10 11 12 9 7 8 9 7 9 10 11 7 7 4 3 7 1 3 6 5 8 8 6 2 4 7 10 12 5 8 9 8 8 9 9 10 10 10 11 10 10 10 9 7 7 6 7 6 5 2 1 1 1 0 1 2 2 1 2 3 3 3 3 3 3 2 3 4 4 4 4 4
6 8 11 13 15 15 16 18 15 12 11 10 12 12 12 12 11 11 7 10 9 9 11 8 11 10 9 10 6 3 4 4 6 6 6 6 4 1 1 3 6 10 8 4 4 9 9 9 11 11 12 13 13 11 10 10 8 10 7 8 9 9 5 3 2 1 1 1 1 2 2 1 2 2 2 2 3 3 2 3 2 3 2 3 3 4
8 7 10 11 15 16 16 17 17 15 13 12 13 13 14 13 13 13 13 14 13 9 12 10 12 12 10 10 8 8 7 5 8 7 7 6 5 5 7 6 7 9 11 8 11 10 10 11 11 10 10 9 10 10 10 10 12 11 8 11 9 8 7 4 3 2 1 1 2 2 2 1 1 1 2 3 2 1 2 3 2 2 2 2 2 3
5 10 12 12 15 15 16 16 15 16 16 14 14 15 14 15 15 15 15 15 15 15 15 14 14 16 13 13 13 11 7 7 6 5 4 6 9 10 10 9 9 9 12 11 11 13 13 12 11 11 11 10 12 13 12 9 7 8 7 6 6 6 5 5 4 3 3 3 2 2 3 2 0 1 2 2 3 1 0 2 1 1 2 2 2 2
6 6 6 10 12 14 15 17 18 16 15 17 17 16 16 15 16 16 15 14 15 16 16 16 16 15 10 10 12 10 7 6 6 7 6 4 6 6 7 11 13 14 14 10 9 11 11 12 13 13 12 11 10 10 9 8 9 7 7 4 8 7 6 6 4 4 2 2 2 3 3 2 2 2 3 3 1 0 3 2 2 2 1 2 1 2
5 7 9 9 8 12 13 14 15 13 14 17 18 18 17 16 14 13 12 12 13 14 13 14 14 11 8 9 5 9 7 6 7 6 5 6 7 8 8 8 8 8 9 10 9 10 14 14 13 13 12 12 12 12 12 9 9 9 9 5 10 8 7 5 3 2 2 4 3 4 4 2 3 3 3 3 4 3 2 4 3 4 4 3 1 3
8 8 6 6 10 11 13 14 13 13 12 13 14 14 16 16 14 14 15 15 15 13 12 9 12 9 10 8 7 9 8 8 7 7 6 7 7 7 8 8 8 8 8 7 7 7 10 15 13 13 12 13 13 12 13 11 10 9 7 3 7 5 4 6 4 3 3 3 4 3 1 2 4 3 2 3 2 1 1 1 3 2 3 4 2 0
10 11 6 5 5 4 11 13 11 8 10 12 5 7 9 12 12 15 15 15 14 13 12 11 11 10 10 9 9 8 8 7 5 5 6 5 4 5 6 7 8 8 5 4 4 4 5 6 10 12 12 9 10 12 10 9 8 6 2 4 8 6 6 6 5 4 4 5 5 4 2 2 3 3 3 3 2 1 2 2 2 3 3 2 3 2
11 8 5 6 4 5 8 9 7 11 13 6 8 8 10 12 12 13 13 13 13 14 15 16 15 12 11 10 10 9 7 8 7 9 9 8 5 6 6 7 8 6 5 4 3 4 4 2 3 6 10 10 9 7 7 7 7 3 5 3 6 6 5 4 3 4 5 5 3 2 1 3 4 4 2 1 3 2 2 2 2 2 2 3 4 1
8 8 6 4 3 4 7 7 11 9 5 9 8 6 8 10 10 10 12 12 11 11 10 12 12 12 11 11 10 10 9 9 7 6 5 5 6 7 6 3 5 5 4 2 3 3 2 4 1 5 6 6 7 7 7 6 4 5 7 6 6 5 4 3 5 5 3 4 3 3 2 3 2 2 3 2 2 2 3 2 2 2 4 3 2 3
16 12 4 3 4 7 6 11 13 12 14 13 10 8 6 8 10 9 6 10 11 11 12 12 12 12 12 11 11 9 9 7 6 6 8 11 10 9 5 3 2 3 2 1 2 2 3 2 2 2 5 5 6 7 5 5 7 6 7 6 5 5 4 4 4 4 3 3 4 4 4 4 3 1 2 2 2 3 2 5 4 3 2 5 4 5
16 14 6 7 4 8 10 9 8 9 12 6 8 7 4 4 6 9 6 10 9 12 10 10 11 10 10 9 8 6 3 3 5 6 5 10 9 3 4 3 3 2 2 2 2 2 2 1 1 2 6 6 6 6 7 7 5 6 5 6 6 6 4 5 6 6 5 4 3 5 4 4 3 3 0 3 3 3 6 2 1 2 5 2 3 2
18 17 10 8 4 4 7 10 9 10 7 5 7 2 1 5 6 4 6 11 10 12 12 11 11 11 10 7 5 3 4 5 7 2 3 5 2 3 1 2 4 3 3 3 4 6 2 2 2 4 7 6 8 8 7 7 6 8 7 5 5 5 5 5 7 6 4 3 3 4 6 4 3 1 1 2 1 1 4 2 1 3 4 1 2 1
16 6 3 3 5 5 6 9 11 4 5 5 7 5 2 4 2 2 5 5 3 9 12 12 9 6 6 5 3 4 4 6 6 4 4 3 4 4 2 2 2 3 4 6 5 4 3 5 4 3 4 6 6 7 8 9 9 7 6 6 5 4 5 5 5 6 4 2 2 2 1 6 5 3 2 2 1 1 4 3 1 2 2 3 4 3
7 2 4 9 4 6 8 8 7 7 7 10 11 9 4 4 2 5 8 1 4 6 5 3 1 2 1 2 3 5 5 1 5 3 2 2 2 4 3 4 5 7 7 4 4 1 4 7 6 6 6 6 6 7 7 7 5 6 6 5 6 6 5 5 4 3 3 3 4 4 3 4 4 4 2 1 1 1 6 3 2 1 2 4 6 3
4 3 1 1 5 9 9 10 11 9 8 8 7 8 6 6 7 9 4 4 2 3 3 1 2 3 3 5 3 4 2 4 2 3 2 3 2 3 6 4 5 6 7 5 1 2 1 8 7 5 6 6 7 6 5 5 5 4 5 4 4 3 4 4 5 3 2 3 4 3 7 6 6 4 2 0 1 2 3 5 3 2 3 4 5 3
1 0 3 6 4 4 5 8 8 10 2 6 8 10 6 6 6 4 5 0 4 5 3 4 4 4 4 4 4 3 2 1 3 3 2 1 3 4 4 5 5 4 3 5 5 4 3 4 9 8 6 6 7 6 6 7 7 5 3 4 4 4 4 4 2 4 5 5 5 6 8 6 7 4 3 2 1 1 1 5 5 3 3 4 3 3
9 4 2 2 4 5 8 10 6 2 8 3 2 4 7 11 6 1 2 4 6 5 3 2 4 4 5 5 3 5 5 3 2 5 6 4 3 2 3 5 4 4 3 6 3 4 8 5 3 8 7 6 7 8 7 6 5 5 4 4 4 3 3 3 3 4 5 2 4 9 7 9 7 5 3 3 2 1 1 1 3 6 4 2 2 1
9 6 3 3 2 0 3 5 7 12 11 8 5 4 8 9 9 10 4 5 5 4 6 5 3 6 7 4 4 4 4 4 4 3 2 1 1 2 2 3 4 3 3 5 2 6 6 5 5 4 5 5 6 7 8 8 7 7 7 6 6 6 5 4 4 5 4 3 3 7 9 7 6 6 4 6 4 3 2 2 2 3 4 4 5 4
4 7 5 2 4 5 11 14 12 10 10 12 9 12 11 11 8 6 9 8 5 6 6 7 6 8 6 8 8 6 6 5 4 4 4 4 3 1 2 2 3 3 3 4 4 4 5 5 5 4 5 7 7 6 6 8 9 9 9 7 5 4 5 6 7 5 4 4 3 4 5 6 8 9 6 6 7 7 6 6 5 4 4 4 3 4
6 2 2 3 3 2 4 1 6 6 8 9 8 10 15 14 13 9 5 7 7 6 7 7 7 4 2 5 12 9 5 5 5 4 4 3 4 4 3 3 3 4 5 5 4 2 5 5 7 8 7 6 7 7 7 8 9 8 7 6 6 5 5 7 5 4 3 2 3 3 3 3 2 5 8 7 5 6 7 8 7 6 5 4 4 4
2 8 4 6 7 7 9 8 11 9 6 8 3 5 7 14 20 15 9 9 7 7 7 7 6 7 7 8 6 6 8 5 7 5 4 4 5 4 4 5 4 5 4 4 3 3 4 5 7 6 6 6 5 4 4 5 5 5 5 6 6 7 8 7 4 5 5 5 2 2 4 5 6 6 4 6 6 5 5 8 10 7 7 6 5 4
5 6 4 3 4 9 12 13 12 10 11 7 2 3 4 0 10 10 9 7 11 11 9 7 3 5 6 8 7 7 8 8 8 8 7 5 4 3 4 4 5 4 4 5 5 3 4 4 6 6 7 5 6 6 4 4 5 6 5 8 8 8 8 4 5 4 4 4 4 4 4 5 6 6 4 4 6 3 3 4 4 7 6 5 4 5
2 4 6 8 7 6 6 6 1 4 4 4 5 5 3 0 7 7 6 10 10 10 10 12 9 8 9 7 6 5 7 7 7 7 8 6 4 3 3 4 3 4 5 4 4 5 5 5 4 5 6 6 7 7 7 5 5 5 6 8 9 8 6 6 6 5 3 3 4 5 5 4 3 6 6 5 5 7 4 8 11 5 7 4 7 13
8 7 5 6 7 7 9 9 2 5 8 10 7 5 4 4 6 7 3 3 7 11 8 5 5 4 11 8 11 11 7 5 7 6 6 5 4 3 3 3 3 3 4 4 5 6 6 5 6 6 6 5 6 8 7 5 6 7 7 9 8 7 7 7 6 5 4 4 4 6 5 4 4 5 5 4 4 5 6 5 8 12 11 13 9 9
Wind_Direction
133 246 230 225 255 268 332 251 14 2 315 333 283 276 268 257 256 256 273 288 141 173 275 278 247 242 268 238 170 164 168 163 160 156 166 165 163 179 177 229 191 170 148 149 116 108 125 137 132 130 133 138 134 139 138 128 135 145 138 139 137 143 147 154 150 160 149 150 154 184 166 153 145 147 145 170 149 241 316 277 170 158 174 190 176 178
254 257 244 268 166 290 330 346 1 327 322 283 300 321 298 264 267 309 304 186 282 315 296 287 288 289 283 271 222 168 178 173 160 164 169 169 167 163 175 207 178 161 142 135 118 119 171 158 141 145 136 138 132 140 135 128 126 130 134 136 140 148 154 147 147 136 146 161 159 162 163 162 160 150 160 184 233 230 222 282 322 125 163 210 189 177
181 255 291 289 348 332 283 334 336 325 311 304 288 281 298 302 307 277 250 175 178 199 263 262 264 276 273 270 262 181 183 164 168 168 168 163 159 154 171 208 189 154 148 154 163 172 192 168 163 147 138 125 128 132 131 130 132 130 129 133 136 150 156 153 153 159 156 151 139 171 158 161 153 169 168 174 160 117 240 178 286 125 215 237 232 208
248 232 11 20 354 294 323 338 338 302 287 268 260 247 241 277 289 257 266 306 298 284 290 307 306 287 270 268 261 258 188 166 166 163 156 153 165 157 180 171 174 97 146 169 183 191 175 183 154 135 134 137 133 129 125 133 134 134 130 133 136 139 137 137 162 161 152 150 149 170 159 149 176 167 174 172 148 158 221 212 185 153 332 264 237 219
313 273 58 298 353 342 293 256 206 287 264 239 231 267 303 285 277 305 309 293 289 300 305 287 272 278 279 271 254 244 120 152 137 142 145 156 158 163 161 144 160 200 136 179 208 182 186 172 159 159 143 154 146 139 135 150 148 139 133 136 133 133 132 138 135 150 151 148 163 159 174 172 189 197 173 145 206 195 181 196 174 208 196 239 244 246
309 66 80 271 289 276 271 275 238 252 245 235 245 261 277 302 278 276 311 303 295 288 253 269 274 269 258 258 261 229 129 141 137 144 145 133 134 146 159 152 151 189 136 161 269 205 183 165 148 144 157 140 126 131 138 134 133 127 131 135 134 120 131 157 138 152 153 169 169 166 166 178 192 192 197 197 204 185 207 194 185 191 203 215 229 239
277 132 290 303 313 269 239 263 291 313 313 323 317 315 303 259 256 245 234 256 258 263 277 283 282 290 302 298 294 287 237 130 140 138 146 140 107 158 175 180 156 172 157 197 221 194 171 158 154 155 155 147 139 131 136 127 105 117 110 119 125 144 135 126 139 150 159 175 177 185 198 195 188 201 179 196 192 178 173 201 183 182 189 214 212 208
209 177 210 225 216 256 281 253 235 226 322 292 299 95 276 291 331 338 323 280 279 272 263 265 259 267 264 261 287 278 270 145 142 155 152 138 165 229 203 133 175 215 196 196 192 190 157 171 169 162 152 146 139 149 145 142 141 129 134 144 135 100 88 122 154 154 153 206 172 187 200 208 231 217 224 191 160 173 149 177 207 168 188 222 223 215
254 280 255 177 220 269 283 256 289 330 249 253 309 295 338 348 316 299 292 280 277 298 283 268 266 265 258 253 251 261 264 200 162 158 162 167 183 192 154 158 199 239 252 213 193 174 182 176 181 156 152 138 148 147 143 145 138 129 158 135 131 129 145 142 130 142 175 225 292 244 217 216 209 227 222 223 178 161 198 211 194 186 189 210 229 223
32 299 27 345 337 275 282 352 350 315 324 55 289 322 313 302 282 267 268 276 274 260 262 266 265 268 272 282 282 314 309 11 112 136 148 137 166 178 159 174 168 183 229 226 196 180 181 187 178 164 135 146 156 150 147 141 147 143 128 114 184 130 197 145 146 180 217 193 217 252 243 250 252 221 245 235 235 158 174 188 236 219 200 206 206 212
267 177 257 267 266 291 305 319 319 309 292 307 304 301 278 260 263 256 253 257 271 257 267 268 267 263 272 266 250 240 266 167 177 167 162 182 185 149 168 180 172 184 202 200 193 177 182 171 187 161 147 162 153 153 148 150 148 149 143 144 180 107 81 91 154 191 209 203 245 238 241 248 250 249 253 256 234 220 174 204 209 215 217 211 211 196
233 215 204 221 211 240 299 287 271 272 266 277 285 281 292 279 260 262 269 265 275 276 265 263 277 279 266 261 271 240 222 267 275 153 165 179 173 177 161 174 181 190 188 202 204 181 167 182 187 144 165 166 166 170 160 168 147 162 155 148 151 140 184 135 170 224 255 258 235 244 260 267 267 264 257 243 248 235 242 226 207 188 221 215 206 200
319 291 293 176 131 199 282 284 263 238 246 242 254 256 263 278 273 267 256 257 258 269 300 322 325 332 262 292 290 293 185 233 227 151 197 192 177 178 183 183 190 186 189 190 208 162 166 178 175 168 176 179 181 208 166 176 172 176 155 156 202 161 152 170 197 194 239 244 253 256 255 255 264 270 261 259 260 255 256 248 247 179 204 241 235 210
223 230 229 227 228 152 166 278 254 253 235 263 254 273 276 283 290 283 280 274 269 242 7 320 330 284 271 252 324 301 211 197 194 173 192 187 191 193 190 190 192 193 192 200 198 157 153 139 163 176 188 182 201 211 191 194 175 180 158 167 203 137 141 168 186 226 240 231 233 254 255 268 274 280 281 277 267 261 252 248 243 213 205 207 232 236
309 296 239 221 186 81 278 237 289 302 324 273 288 258 262 261 281 287 281 286 292 292 295 274 278 253 281 161 265 335 16 71 170 207 216 168 184 202 201 190 192 202 199 205 198 163 152 170 167 179 193 190 197 212 208 199 196 170 185 198 164 163 155 172 197 218 231 260 252 230 250 274 316 296 280 273 278 287 280 276 266 259 252 209 233 230
266 278 286 186 346 152 232 275 320 321 289 271 269 278 253 257 265 262 295 290 293 297 290 252 255 244 251 145 194 255 104 305 268 131 90 184 190 185 165 172 184 192 204 185 131 139 158 164 173 194 196 215 209 218 218 190 214 179 211 183 164 160 194 168 206 222 251 262 281 319 318 292 263 249 277 295 304 336 323 297 275 275 269 253 222 223
226 223 44 97 9 183 230 258 261 207 264 80 306 260 303 333 266 268 257 256 295 267 265 263 258 261 248 166 25 347 168 168 175 194 221 214 179 201 223 186 184 194 188 194 147 149 145 150 188 181 104 265 251 240 229 219 205 198 213 157 126 180 194 192 191 225 234 250 287 294 277 291 308 303 299 302 299 288 233 310 305 298 284 274 274 257
269 273 187 235 230 214 224 264 281 263 267 289 263 301 315 263 268 273 284 296 258 271 262 259 268 291 303 263 257 334 274 174 192 222 223 228 228 206 208 206 195 191 180 177 169 150 152 176 188 174 186 183 242 249 231 217 199 195 233 121 216 182 202 189 208 196 218 225 240 268 288 295 295 312 318 314 310 315 295 253 266 265 281 304 280 261
344 298 287 248 232 328 106 255 250 240 243 257 264 351 271 289 263 239 290 268 279 271 290 274 298 287 265 286 329 292 334 323 253 215 204 228 212 215 184 202 212 197 160 170 161 146 155 176 180 192 187 178 268 263 242 213 215 191 189 200 233 147 196 229 202 242 227 253 219 254 311 323 329 314 301 337 354 347 323 322 294 272 254 223 234 243
209 275 278 308 246 297 196 191 265 267 201 222 256 271 254 265 251 264 211 273 250 275 290 280 305 298 266 93 195 306 282 276 302 269 302 345 335 314 175 202 211 199 171 170 160 156 158 180 187 191 194 181 211 239 240 227 221 188 132 214 228 214 239 265 215 221 250 242 272 279 282 298 317 326 328 332 338 331 322 304 336 335 326 317 274 255
274 197 265 272 155 292 258 205 244 246 253 204 224 246 249 244 273 281 255 250 267 282 277 293 281 16 100 122 142 170 124 231 229 268 270 257 266 257 219 233 274 218 181 174 168 148 147 178 202 200 206 212 216 223 224 209 223 180 165 201 211 240 215 174 214 222 216 206 193 213 273 336 321 304 294 299 315 309 305 324 81 251 290 308 314 312
275 288 276 282 252 223 247 266 265 258 262 249 243 258 271 278 279 275 283 273 281 284 287 288 287 300 177 187 186 213 194 222 237 248 247 249 249 248 262 260 219 182 170 201 180 150 158 184 196 225 242 249 220 201 206 206 201 226 189 197 193 221 229 213 204 220 198 168 117 226 294 278 298 297 297 302 308 303 313 336 341 336 292 318 295 307
255 263 257 249 261 264 255 230 219 278 292 275 252 245 235 237 230 235 258 262 252 240 277 283 311 299 146 215 193 196 179 241 261 258 254 259 268 300 313 300 275 88 96 87 104 149 162 169 178 197 203 213 218 206 204 218 206 204 188 180 184 227 224 243 248 78 51 69 111 82 30 298 293 305 302 301 299 298 317 346 347 341 347 341 348 342
46 277 272 270 272 272 277 301 162 258 267 258 247 260 272 268 244 241 252 269 270 282 262 246 237 244 178 203 111 165 224 272 272 287 277 252 259 275 278 273 296 194 126 134 133 124 138 147 161 188 187 200 193 192 212 216 222 180 181 195 206 193 231 243 207 216 196 184 188 170 173 356 313 305 313 303 309 309 326 328 323 342 339 356 353 334
232 187 248 278 278 272 251 238 211 188 228 250 267 257 245 244 251 255 260 251 264 254 269 268 267 262 194 164 176 190 261 280 282 254 222 314 333 338 355 346 314 250 155 137 162 166 164 164 177 188 178 193 203 192 206 219 237 200 189 197 202 207 172 201 207 232 314 326 104 51 182 223 236 286 302 297 284 295 307 313 328 329 347 1 352 9
213 282 237 243 254 258 255 242 249 242 231 248 254 254 260 265 257 260 253 266 266 265 266 263 268 286 151 188 200 205 21 280 267 310 300 288 287 360 18 55 340 292 180 149 168 197 187 186 183 169 174 222 211 216 203 211 231 237 229 181 186 198 223 214 176 111 174 303 359 344 253 284 291 283 285 301 320 321 325 320 319 343 5 8 1 358
247 245 268 269 262 265 276 316 108 305 302 257 246 253 258 255 265 257 274 265 257 272 267 261 267 274 203 179 291 81 348 319 301 282 288 287 267 139 151 160 193 251 189 193 177 181 182 183 184 193 193 209 210 208 211 207 204 205 213 201 187 185 229 164 78 174 233 137 296 291 307 356 326 350 352 340 328 319 295 314 353 340 7 8 2 353
242 242 242 255 263 270 279 285 291 285 276 276 281 270 261 258 255 257 247 254 268 274 263 261 273 279 296 316 293 283 153 231 259 272 276 275 289 284 325 338 347 305 271 175 176 182 194 188 190 196 191 205 214 207 207 199 191 216 206 215 186 182 173 140 156 200 280 16 330 324 335 344 4 10 344 345 302 288 335 350 348 7 351 348 352 13
259 269 257 255 259 263 264 271 279 281 268 266 261 263 269 265 256 253 251 254 258 255 265 278 288 287 284 271 280 288 289 267 268 285 275 256 241 203 186 189 217 239 241 180 184 189 195 188 192 200 208 218 216 225 231 203 191 216 201 206 188 147 150 154 153 152 193 226 269 265 291 6 209 65 321 273 291 337 24 352 349 336 347 331 352 32
230 242 255 262 274 271 270 272 274 273 278 274 266 258 258 263 261 256 255 256 257 259 262 268 264 267 276 279 283 296 303 298 305 277 261 233 206 208 207 202 206 231 251 225 198 187 191 198 201 203 205 210 220 221 220 218 223 224 230 194 158 144 150 159 145 163 185 211 248 273 269 269 4 220 230 270 258 260 174 229 201 117 352 323 360 20
250 258 271 268 266 265 266 266 260 261 268 269 265 263 246 238 252 256 259 257 258 261 264 264 267 270 267 277 278 265 252 254 274 275 265 267 277 272 231 211 210 213 218 230 215 184 188 197 195 203 210 205 219 237 229 227 217 220 230 171 145 149 158 159 161 165 150 287 263 286 292 255 254 261 267 260 254 88 261 285 35 27 313 321 66 69
216 265 270 265 270 271 274 279 278 273 265 263 264 261 266 257 242 245 247 248 249 255 257 258 260 261 265 264 313 319 297 270 257 243 236 248 250 239 239 248 252 249 243 227 213 189 186 194 193 197 199 204 208 224 230 220 218 217 221 199 156 162 166 155 153 168 167 200 216 234 253 265 260 268 288 309 305 296 353 10 10 345 335 333 10 68
231 245 243 250 259 259 261 264 268 274 279 271 259 264 262 266 268 258 252 247 242 245 251 252 256 262 275 276 244 233 234 248 256 269 283 283 274 262 256 251 242 244 250 249 240 227 189 185 194 195 197 197 202 213 221 218 221 231 216 223 136 132 133 131 163 174 224 244 254 245 228 255 266 269 259 267 293 334 44 313 307 321 335 333 9 94
256 249 266 280 265 281 283 287 287 280 263 252 285 267 272 269 262 256 251 247 242 231 245 248 255 261 260 257 255 257 257 253 271 294 287 277 276 282 268 264 281 286 283 270 270 246 232 212 191 186 183 193 206 208 211 210 222 230 224 175 130 135 161 175 173 174 218 237 231 233 210 235 265 276 272 254 239 265 17 8 348 5 330 325 326 292
242 245 241 227 245 257 269 284 294 259 251 277 277 274 259 262 266 271 274 264 250 241 243 246 249 249 252 263 269 268 262 272 269 264 258 252 251 253 253 272 282 270 257 265 274 299 326 293 177 164 166 184 201 194 191 215 221 175 217 202 138 160 186 184 181 181 206 210 219 204 234 269 255 253 270 356 33 33 339 351 29 322 283 289 258 96
242 239 251 250 260 269 259 246 255 252 285 258 256 261 256 260 267 277 272 268 265 255 247 248 250 251 254 258 260 255 259 263 265 254 267 264 248 264 283 242 246 282 307 328 6 5 350 324 190 156 158 164 186 189 197 202 214 194 208 180 192 168 174 186 190 212 216 208 168 214 217 231 239 265 268 290 346 5 341 31 35 356 345 314 308 104
243 246 213 255 231 253 244 249 252 288 287 281 288 272 289 284 280 260 262 255 252 254 253 254 252 252 254 249 242 244 248 259 264 276 258 263 243 205 198 262 310 300 301 357 348 323 326 310 306 170 146 148 163 172 186 195 199 209 202 186 196 205 175 174 213 217 196 199 188 196 217 228 242 360 9 1 359 342 11 47 13 330 220 255 250 138
226 233 175 213 218 214 249 257 258 254 259 269 265 245 204 267 263 276 287 282 258 256 250 240 242 247 248 244 246 247 240 263 270 256 58 34 27 97 136 185 222 247 260 279 268 233 243 288 255 163 128 139 158 174 175 192 181 208 217 194 185 195 178 176 206 213 219 216 189 172 197 227 239 234 307 357 347 41 63 46 18 308 297 307 307 100
232 231 222 191 219 213 239 249 248 256 256 265 278 143 188 278 286 299 275 273 258 242 230 230 235 236 239 239 227 226 219 249 252 271 69 53 356 59 299 213 233 223 212 202 258 274 197 132 171 190 154 159 170 183 177 179 189 209 205 185 191 177 177 185 208 210 214 202 235 206 179 177 159 37 61 267 278 99 113 79 351 328 314 5 309 61
231 217 97 167 213 209 243 244 249 237 255 243 265 300 181 185 121 305 267 287 315 206 219 211 220 230 229 209 195 202 229 243 266 64 39 3 18 9 286 278 275 266 252 253 246 226 193 124 132 215 166 174 184 169 186 185 188 213 202 176 180 182 189 191 207 219 194 204 238 250 140 112 119 167 210 284 9 56 114 118 82 284 312 320 283 229
241 125 181 221 196 205 223 256 270 268 259 267 274 274 221 127 165 231 230 297 23 20 55 38 213 178 150 177 167 247 216 313 69 111 190 97 306 273 270 254 279 289 278 250 258 89 185 162 167 195 194 181 187 186 195 208 205 199 179 166 173 185 190 185 185 204 232 219 227 197 138 130 113 97 101 219 277 309 118 129 120 12 295 285 278 294
253 149 199 165 217 218 218 237 247 271 270 261 238 242 226 178 213 221 223 79 290 91 242 235 194 161 191 213 214 218 44 96 91 29 300 270 257 298 312 295 223 234 260 268 234 185 225 134 159 173 190 185 173 179 189 184 204 208 170 167 187 187 193 203 199 187 209 223 231 223 137 120 116 128 123 320 271 260 154 136 146 184 254 248 271 287
201 147 229 195 210 210 220 234 243 253 126 214 248 258 209 197 207 237 310 63 267 275 235 200 230 216 193 213 211 305 310 206 165 179 148 221 254 282 271 271 285 264 251 264 164 170 190 224 160 176 189 182 165 180 197 189 188 183 140 172 185 195 213 217 183 185 218 237 215 103 118 123 125 133 182 180 252 271 204 145 152 179 228 265 246 246
146 203 223 249 200 248 212 216 226 329 314 281 231 246 187 208 243 192 127 286 351 316 268 263 234 248 199 242 223 199 204 233 205 180 182 210 207 205 263 284 258 271 261 272 269 168 159 254 183 165 170 159 167 180 187 184 167 161 183 211 193 213 192 167 170 200 228 189 120 120 142 137 152 159 168 152 164 265 293 242 162 170 194 178 324 243
166 194 155 212 49 134 279 293 341 328 309 318 290 333 299 259 215 250 273 278 203 249 318 298 46 353 323 272 249 257 258 202 233 249 215 184 171 249 263 247 269 242 238 274 217 123 134 199 260 143 148 158 181 180 183 170 175 169 196 204 192 201 177 169 198 219 216 144 137 140 150 147 158 168 160 153 178 187 221 270 237 187 178 165 189 223
139 182 100 104 248 247 261 261 273 260 294 320 350 324 317 310 270 236 252 247 245 233 209 242 185 186 224 266 256 227 228 246 229 218 207 200 232 211 138 283 238 221 244 248 273 167 191 194 231 240 198 183 196 190 181 168 173 184 196 198 186 190 178 182 203 207 178 159 167 180 213 181 162 159 170 176 173 182 192 210 209 222 160 187 189 201
221 196 158 192 213 305 271 13 297 320 338 337 338 342 327 325 314 287 256 257 259 263 248 243 251 184 147 267 271 273 257 231 242 240 206 222 211 209 176 181 220 221 207 223 238 216 184 209 209 214 211 194 185 181 164 163 174 188 186 183 178 180 217 219 194 157 128 146 166 147 178 216 190 175 174 178 184 202 191 198 204 192 162 185 193 196
232 54 308 241 234 213 251 264 283 302 312 301 13 45 5 342 328 323 326 318 278 242 262 263 257 246 210 239 229 242 258 266 280 268 236 231 225 216 193 193 192 200 216 226 239 216 222 204 235 250 230 202 173 160 169 169 185 208 179 167 185 198 208 219 159 152 158 156 160 175 180 206 205 194 194 194 179 212 224 198 187 174 167 194 189 193
307 345 281 346 302 290 290 276 270 281 298 283 94 133 120 257 292 306 327 357 5 320 268 256 285 295 269 246 250 256 250 242 232 251 253 233 242 217 202 205 194 200 201 200 215 241 226 220 229 233 242 207 161 164 186 197 181 210 182 165 188 204 207 167 131 123 124 132 164 208 234 213 179 175 212 211 170 156 43 334 224 156 174 172 182 187
252 247 279 279 260 257 261 270 63 307 289 287 327 338 339 10 262 303 358 347 358 1 9 353 329 315 299 274 279 289 284 267 237 244 246 234 230 252 244 202 216 217 202 191 221 220 218 216 225 237 243 218 171 160 180 198 211 207 182 180 199 193 146 132 130 134 170 183 196 211 221 230 189 183 198 224 192 132 82 35 25 73 123 84 84 100
227 224 197 250 267 266 261 274 222 258 270 269 275 275 284 308 331 315 33 354 339 330 317 328 337 257 259 313 349 309 280 281 285 265 250 249 222 238 254 246 229 226 226 181 200 217 218 208 214 238 244 225 169 165 170 191 210 221 209 191 189 155 151 143 145 155 174 183 218 219 210 203 219 211 195 201 233 148 135 115 49 26 74 116 112 106